Regional Weather Roundup
Issued by NWS Midland/Odessa, TX

Home | Current Version | Previous Version | Text Only | Print | Product List | Glossary On
Versions: 1 2 3 4 5 6 7 8 9 10 11 12 13 14 15 16 17 18 19 20 21 22 23 24 25 26 27 28 29 30 31 32 33 34 35 36 37 38 39 40 41 42 43 44 45 46 47 48 49 50
000
ASUS44 KMAF 281410
RWRMAF
MIDLAND AREA WEATHER ROUNDUP
NATIONAL WEATHER SERVICE MIDLAND TX
900 AM CDT SAT MAY 28 2016

...IN SOUTHWEST TEXAS AND SOUTHEAST NEW MEXICO...

CITY           SKY/WX    TMP DP  RH WIND       PRES   REMARKS
ALPINE         SUNNY     72  23  16 CALM      30.11R
ANDREWS        FAIR      65  35  33 E3        30.00R
ARTESIA        SUNNY     63  39  42 N8        30.03R
BIG SPRING     SUNNY     69  45  41 S15       29.99R
CARLSBAD       SUNNY     66  34  30 NW18      30.00R
DRYDEN           N/A     71  64  78 NE6       29.94R
FORT STOCKTON  SUNNY     74  25  16 SW9       29.97R
GUAD PASS      NOT AVBL
HOBBS          SUNNY     63  41  45 NE12      30.03R
MARFA          SUNNY     68  22  17 CALM      30.09R
MIDLAND AIRPK  SUNNY     74  23  15 CALM      29.98R
MIDLAND INTL   SUNNY     76  21  12 SW10      29.97R
ODESSA         SUNNY     73  20  13 SW6       29.99R
PECOS          SUNNY     67  23  18 NW5       29.96R
PRESIDIO       FAIR      68  18  15 S3        29.96R
SEMINOLE       SUNNY     64  44  47 NE14      30.02R
SNYDER           N/A     65  52  62 NE6       30.00R
WINK           SUNNY     68  24  19 CALM      29.96R
$$
...OTHER STATIONS IN TEXAS...

CITY           SKY/WX    TMP DP  RH WIND       PRES   REMARKS
ABILENE        SUNNY     71  64  78 CALM      29.95R
AMARILLO       SUNNY     61  46  57 N10       30.04R
AUSTIN         CLOUDY    71  69  93 CALM      29.93R FOG
BROWNSVILLE    CLOUDY    83  78  85 SE20G29   29.87R
CORPUS CHRISTI CLOUDY    82  76  81 SE15      29.91R
DALLAS FTW     PTSUNNY   70  65  84 S5        29.94R
DEL RIO        CLOUDY    72  72 100 SE6       29.92R FOG
EL PASO        SUNNY     66  19  16 NW3       30.00R
HOUSTON INT    SUNNY     74  69  85 S7        29.93R
LUBBOCK        SUNNY     64  45  49 NE10      30.02R
SAN ANGELO     SUNNY     71  67  87 CALM      29.94R
SAN ANTONIO    CLOUDY    75  71  87 SE5       29.95R
WACO           CLOUDY    68  66  93 SW6       29.95R
WICHITA FALLS  NOT AVBL
$$
...OTHER LOCATIONS IN NEW MEXICO...

CITY           SKY/WX    TMP DP  RH WIND       PRES   REMARKS
ALAMAGORDO     SUNNY     63  21  20 CALM      30.03R
ALBUQUERQUE    SUNNY     56  31  38 N6        30.09R
CANNON AFB     SUNNY     62  41  44 NE12      30.05R
CLOVIS         SUNNY     61  43  51 NE10      30.06R
HOLLOMAN AFB   SUNNY     63  19  18 SE9       30.01R
ROSWELL        SUNNY     63  39  41 N8        30.03R
RUIDOSO          N/A     57  25  28 E3        30.17R
SANTA FE       SUNNY     52  32  46 N9        30.13R
TRUTH OR CONSE SUNNY     67  25  20 N3        30.04R
TUCUMCARI      SUNNY     62  43  49 CALM      30.05R
$$



USA.gov is the U.S. government's official web portal to all federal, state and local government web resources and services.